Total_Precipitation_Accumulation
0.51 0.56 0.65 0.79 0.95 1.09 1.21 1.34 1.61 1.75 1.96 2.03 1.98 1.90 1.98 2.01 2.04 2.05 1.99 1.88 1.78 1.63 1.46 1.27 1.15 1.11 1.01 0.91 0.81 0.74 0.74 0.73 0.70 0.70 0.65 0.60 0.55 0.50 0.45 0.48 0.60 0.71 0.73
0.59 0.63 0.75 0.90 0.96 1.01 1.14 1.30 1.52 1.67 1.75 1.73 1.72 1.72 1.74 1.81 1.87 1.95 2.02 2.03 1.96 1.80 1.66 1.47 1.30 1.17 1.12 1.03 0.92 0.83 0.77 0.73 0.67 0.70 0.74 0.66 0.60 0.52 0.41 0.35 0.42 0.53 0.62
0.53 0.55 0.67 0.91 1.01 1.01 1.10 1.23 1.43 1.58 1.74 1.86 1.92 1.92 2.03 2.05 1.95 1.84 1.87 1.94 1.94 1.86 1.72 1.60 1.50 1.39 1.27 1.16 1.08 1.01 0.92 0.86 0.76 0.68 0.87 0.90 0.69 0.50 0.37 0.33 0.34 0.36 0.41
0.51 0.52 0.60 0.82 1.00 0.99 1.14 1.29 1.47 1.67 1.75 1.93 1.97 1.80 1.72 1.77 1.68 1.64 1.61 1.73 1.88 1.88 1.79 1.74 1.68 1.54 1.41 1.26 1.17 1.18 1.15 1.13 1.08 0.92 0.81 0.78 0.71 0.73 0.54 0.34 0.30 0.28 0.28
0.52 0.51 0.55 0.74 0.96 1.05 1.16 1.35 1.49 1.72 1.83 1.89 1.92 1.80 1.64 1.55 1.62 1.76 1.80 1.75 1.75 1.86 1.84 1.75 1.72 1.62 1.48 1.39 1.31 1.21 1.21 1.21 1.19 1.10 0.96 0.85 0.71 0.66 0.76 0.54 0.36 0.35 0.33
0.54 0.58 0.60 0.74 0.90 1.03 1.17 1.31 1.54 1.70 1.91 1.93 1.89 1.73 1.57 1.48 1.52 1.61 1.81 1.89 1.86 1.88 1.90 1.82 1.76 1.66 1.49 1.39 1.40 1.34 1.26 1.23 1.20 1.14 1.06 1.01 0.95 0.77 0.78 0.72 0.48 0.42 0.40
0.60 0.61 0.62 0.71 0.80 0.94 1.10 1.24 1.43 1.69 1.88 1.98 1.84 1.67 1.54 1.45 1.43 1.47 1.58 1.70 1.78 1.84 1.85 1.84 1.74 1.63 1.53 1.39 1.38 1.39 1.35 1.30 1.33 1.33 1.22 1.11 1.02 0.92 0.94 0.97 0.78 0.60 0.49
0.65 0.64 0.61 0.68 0.76 0.88 1.03 1.21 1.35 1.60 1.83 1.94 1.87 1.72 1.55 1.46 1.43 1.47 1.48 1.53 1.48 1.52 1.66 1.80 1.84 1.67 1.49 1.40 1.36 1.33 1.30 1.31 1.33 1.30 1.30 1.27 1.12 1.06 1.09 1.17 1.24 1.12 0.76
0.68 0.70 0.67 0.72 0.76 0.86 1.00 1.17 1.30 1.48 1.74 1.94 1.94 1.83 1.64 1.53 1.46 1.44 1.46 1.53 1.50 1.41 1.46 1.61 1.77 1.86 1.77 1.58 1.45 1.38 1.30 1.30 1.33 1.31 1.31 1.34 1.25 1.15 1.09 1.13 1.33 1.62 1.38
0.65 0.71 0.70 0.73 0.78 0.89 1.01 1.13 1.27 1.40 1.59 1.80 1.91 1.88 1.83 1.67 1.59 1.54 1.48 1.47 1.51 1.49 1.41 1.42 1.51 1.63 1.73 1.74 1.65 1.54 1.41 1.36 1.32 1.32 1.35 1.38 1.38 1.34 1.27 1.21 1.20 1.38 1.57
0.67 0.75 0.78 0.75 0.78 0.91 1.03 1.09 1.19 1.37 1.54 1.64 1.73 1.80 1.91 1.76 1.70 1.69 1.60 1.49 1.45 1.52 1.51 1.46 1.51 1.56 1.58 1.61 1.67 1.63 1.57 1.54 1.49 1.43 1.43 1.42 1.44 1.54 1.53 1.46 1.39 1.34 1.44
0.66 0.67 0.72 0.75 0.74 0.83 1.01 1.12 1.19 1.24 1.43 1.59 1.65 1.73 1.86 1.88 1.76 1.73 1.69 1.54 1.43 1.43 1.48 1.50 1.49 1.56 1.62 1.62 1.68 1.66 1.61 1.65 1.63 1.53 1.48 1.45 1.46 1.54 1.59 1.67 1.61 1.46 1.38
0.65 0.65 0.65 0.69 0.74 0.80 0.94 1.07 1.15 1.17 1.30 1.52 1.56 1.65 1.76 1.82 1.77 1.70 1.73 1.66 1.59 1.59 1.56 1.60 1.64 1.67 1.71 1.77 1.82 1.83 1.81 1.83 1.81 1.74 1.70 1.59 1.59 1.63 1.59 1.64 1.67 1.57 1.47
0.64 0.63 0.64 0.67 0.74 0.81 0.90 0.97 1.04 1.15 1.26 1.48 1.60 1.59 1.64 1.67 1.70 1.71 1.70 1.75 1.79 1.84 1.87 1.84 1.82 1.84 1.91 2.03 2.11 2.15 2.12 2.04 1.99 1.94 1.89 1.82 1.74 1.73 1.73 1.75 1.70 1.64 1.65
0.65 0.64 0.68 0.70 0.75 0.84 0.92 0.92 0.98 1.06 1.20 1.39 1.53 1.58 1.59 1.70 1.80 1.83 1.86 1.83 1.92 1.97 1.94 1.95 1.96 1.91 2.07 2.37 2.50 2.37 2.18 2.03 1.93 1.85 1.82 1.84 1.95 1.96 2.00 2.06 1.92 1.82 1.89
0.65 0.67 0.69 0.73 0.77 0.83 0.91 0.90 0.90 1.00 1.13 1.30 1.39 1.46 1.59 1.70 1.86 1.92 1.99 1.97 1.98 2.03 2.01 1.95 1.95 1.91 1.99 2.45 2.59 2.17 1.82 1.74 1.78 1.75 1.64 1.61 1.81 1.88 1.97 2.09 2.06 2.06 2.14
0.57 0.63 0.71 0.77 0.79 0.82 0.85 0.89 0.89 0.91 1.01 1.18 1.28 1.36 1.51 1.60 1.71 1.78 1.81 1.86 1.81 1.79 1.84 1.88 1.79 1.73 1.84 2.25 2.33 2.01 1.54 1.43 1.49 1.53 1.50 1.45 1.48 1.69 1.62 1.77 1.85 1.89 2.02
0.53 0.56 0.67 0.74 0.73 0.76 0.83 0.85 0.85 0.86 0.94 1.06 1.18 1.21 1.35 1.49 1.53 1.60 1.63 1.66 1.61 1.62 1.72 1.70 1.57 1.47 1.55 1.94 2.06 1.85 1.43 1.35 1.39 1.41 1.41 1.40 1.39 1.52 1.73 1.79 1.71 1.60 1.67
0.52 0.55 0.63 0.68 0.69 0.74 0.80 0.79 0.80 0.81 0.88 0.97 1.04 1.07 1.14 1.32 1.36 1.44 1.52 1.51 1.53 1.54 1.54 1.51 1.44 1.34 1.39 1.72 1.97 1.81 1.35 1.39 1.39 1.38 1.42 1.37 1.30 1.64 1.88 1.82 1.74 1.61 1.57
0.51 0.56 0.62 0.62 0.64 0.71 0.72 0.71 0.73 0.76 0.84 0.90 0.97 0.98 1.00 1.12 1.14 1.19 1.28 1.32 1.34 1.42 1.45 1.43 1.36 1.30 1.27 1.55 1.92 1.90 1.41 1.41 1.39 1.38 1.43 1.58 1.52 1.71 1.79 1.68 1.73 1.78 1.56
0.57 0.56 0.58 0.62 0.65 0.70 0.71 0.71 0.71 0.73 0.78 0.81 0.86 0.90 0.96 1.02 1.03 1.06 1.11 1.19 1.25 1.31 1.36 1.39 1.32 1.22 1.21 1.34 1.66 2.02 1.70 1.50 1.41 1.39 1.42 1.47 1.68 1.68 1.72 1.71 1.66 1.83 1.68
0.58 0.57 0.60 0.64 0.65 0.66 0.65 0.65 0.71 0.71 0.73 0.78 0.84 0.88 0.93 0.95 0.96 0.99 1.06 1.08 1.19 1.33 1.34 1.32 1.31 1.26 1.23 1.27 1.44 1.77 1.91 1.77 1.52 1.43 1.28 1.31 1.56 1.59 1.68 1.65 1.70 1.79 1.71
0.55 0.56 0.60 0.65 0.64 0.64 0.63 0.63 0.69 0.69 0.71 0.75 0.80 0.87 0.93 0.93 0.97 1.00 1.06 1.12 1.22 1.34 1.34 1.28 1.25 1.25 1.22 1.28 1.49 1.50 1.60 1.73 1.59 1.52 1.56 1.46 1.50 1.49 1.45 1.53 1.65 1.62 1.52
0.50 0.50 0.55 0.61 0.63 0.65 0.66 0.66 0.68 0.70 0.73 0.76 0.77 0.82 0.92 0.98 0.99 1.01 1.06 1.09 1.15 1.30 1.35 1.31 1.28 1.20 1.17 1.28 1.51 1.45 1.39 1.52 1.58 1.62 1.64 1.59 1.55 1.51 1.43 1.44 1.43 1.39 1.45
0.49 0.47 0.50 0.57 0.63 0.64 0.65 0.67 0.73 0.77 0.79 0.76 0.76 0.80 0.89 0.96 0.98 1.01 1.05 1.09 1.09 1.30 1.48 1.39 1.38 1.36 1.36 1.43 1.67 1.64 1.55 1.58 1.63 1.70 1.71 1.61 1.55 1.54 1.45 1.35 1.31 1.35 1.44
0.48 0.47 0.47 0.53 0.58 0.61 0.65 0.69 0.78 0.82 0.82 0.81 0.81 0.83 0.90 0.92 0.93 0.96 1.03 1.14 1.16 1.24 1.25 1.28 1.36 1.32 1.44 1.52 1.50 1.57 1.61 1.64 1.70 1.73 1.69 1.49 1.38 1.37 1.33 1.31 1.29 1.26 1.27